ABS-6

Last updated on Wed Sep 09 2026 00:02:57 GMT+0000 (Coordinated Universal Time)

1 25924U 99053A 26251.40529964 -.00000140 00000+0 00000+0 0 9997 2 25924 0.0382 255.4511 0002226 222.3828 174.5259 1.00272956 98674
UTC large
Height (km)
Speed (km/s)
/
Latitude / Longitude
Inclination (degrees)
Orbital Period (minutes)
Azimuth
Elevation
Range (km)
Doppler Factor

Next 0 passes for location: London (51.5072 / 0.1276)

No passes found over London.
ABS-6